Location: Mount Kobau Star Party
(49.1167°N, 119.7333°W)
Time: 10:58:10
(UTC-07:00)

ARIANE 6 FM1 Upper Stage - Pass Details

Date: 18 April 2026
Orbit: 526 x 601 km, 62.0° (Epoch: 18 May)

Event Time Altitude Azimuth Distance (km) Brightness Sun altitude
Rises 00:13:20 0° 317° (NW) 2,680 7.0 -29.2°
Reaches altitude 10° 00:15:57 10° 333° (NNW) 1,780 6.1 -29.3°
Maximum altitude 00:19:04 22° 25° (NNE) 1,204 4.8 -29.4°
Enters shadow 00:19:20 21° 31° (NNE) 1,209 4.8 -29.4°
